CZ-4B DEB, 56088

Orbit data source: Space-Track

CZ-4B DEB, 56088 is space debris in SSO originally from a launch on Wed, 24 Oct 2018 UTC launched from the Taiyaun Space Center, China (TSC). Debris objects in space refer to the collection of defunct objects orbiting the Earth. Examples of debris include non-operational satellites, rocket bodies, and fragments generated from explosions, collisions, or faulty payload assembly.

Loading next visibility...
Identifier
56088, 2018-081J
Orbit
SSO
Country
Flag of CNCN / PRC
Related business
Manufacturer
Unknown
Mission
Spacecraft
Bus & Motor
Unknown
Mass
Unknown
Launch date (UTC)
2018-10-24 (8 years ago)
Launch vehicle
Unknown
Launch site
Taiyaun Space Center, China (TSC)
Object type
Payload
Rocket body
Debris
Shape & HBR
Unknown shape, 0.1 m
Radar Cross Section
Small (<0.1 m²)

Expand to show TLE details & history
Last TLE update: 3 days ago

TLE from 3 days ago
0 CZ-4B DEB
1 56088U 18081J   26170.37902427  .00005557  00000-0  19494-2 0  9996
2 56088  98.7787 330.9685 0134306 229.1090 129.8395 14.30478659166051
Epoch: 2026-06-19T09:05Z
TLE epoch observation values (Epoch: 2026-06-19T09:05:47.696Z)
Latitude
-0.0001°
Longitude
-73.08907°
Altitude
855.5 km
Speed
7.392 km/s
True Right ascension
22h 03m 52s
True Declination
0° 00' 00"
Sunlit
Object was in daylight at epoch
Visualization orbit readout
Latitude
Unknown
Longitude
Unknown
Altitude
Unknown
Speed
Unknown
Apparent Right ascension
Unknown
Apparent Declination
Unknown
Sunlit
N/A
Visualization observer readout
Local Sidereal Time
21:41:13
Azimuth
Unknown
Elevation
Unknown
Doppler factor
Unknown
Orbital elements
Apogee altitude
883.514 km
Perigee altitude
691.043 km
Semi-major axis
7,165.415 km
Eccentricity
0.01343
Inclination
98.7787°
RAAN
330.9685°
Arg. of periapsis
229.109°
True anomaly
131.00857°
Mean anomaly
129.8395°
Eccentric anomaly
130.4253°
Mean motion
3.57834 °/min
Orbital period
100.61 mins
BSTAR
0.0019494
Loading maneuver chart data...
Computing Atmospheric mass density...
Loading historical data...
Loading historical data...
Loading historical data...
Loading historical data...
Loading historical data...
Loading historical data...
Loading historical data...

Documentation

Showing up to 5 results
|